Location: *
(32.8140°S, 174.6161°E)
Time: 07:38:38
(UTC+00:00)

Cosmos 1633 Rocket - Pass Details

Date: 10 December 2019
Orbit: 607 x 624 km, 82.5° (Epoch: 18 January)

Event Time Altitude Azimuth Distance (km) Brightness Sun altitude
Rises 15:38:12 0° 187° (S) 2,900 7.0 -16.0°
Reaches altitude 10° 15:40:26 10° 187° (S) 1,989 6.1 -15.7°
Maximum altitude 15:44:50 86° 273° (W) 623 3.0 -15.0°
Drops below altitude 10° 15:49:12 10° 4° (N) 1,968 5.3 -14.3°
Enters shadow 15:49:43 - 4° (N) 2,173 5.5 -14.2°
